Location: *
(40.7765°S, 106.5327°E)
Time: 15:08:53
(UTC+00:00)

USA 281 - Pass Details

Date: 26 May 2022
Orbit: 1070 x 1089 km, 106.0° (Epoch: 20 June)

Event Time Altitude Azimuth Distance (km) Brightness Sun altitude
Exits shadow 11:26:18 10° 157° (SSE) 2,923 5.2 -20.1°
Maximum altitude 11:32:53 88° 246° (WSW) 1,087 3.2 -21.4°
Drops below altitude 10° 11:39:25 10° 334° (NNW) 2,902 5.9 -22.6°
Sets 11:41:54 0° 334° (NNW) 3,850 6.6 -23.1°
